sat.trackr.live / text

‹ back to catalog

STARLINK-37518

NORAD 69259 · 2026-117X

PAYLOAD ACTIVE UNKNOWN

§ Identity

Operator
Country
US
Launch date
2026-05-29
Launch site
AFETR
Launch vehicle
Mass (kg)
RCS (m²)

Purposes: comms

External: N2YO · Heavens-Above · Gunter

§ Orbital elements

Epoch: 2026-09-20T02:45:28.078848Z

Period
93.85 min
Inclination
53.1579°
Eccentricity
0.0001045
Mean motion
15.34408546 rev/d
Perigee alt
462.0 km
Apogee alt
463.4 km
Semi-major
6,840.8 km
B*
5.2530e-4
RAAN
155.8465°
Arg perigee
62.7086°
Mean anomaly
297.4023°
Rev number
1,760

§ Raw data

STARLINK-375181 69259U 26117X   26263.11490832  .00017418  00000+0  52530-3 0  99932 69259  53.1579 155.8465 0001045  62.7086 297.4023 15.34408546 17607

JSON: /api/v1/satellites/69259 · /tle

For live sub-satellite position, see the globe view (requires WebGL).

§ Visibility from observer

Set your observer location to see the next 7 days of passes ≥ 10°. The values pass through the URL so the page stays shareable.

No JS? Fill the form by hand. The geolocation button needs JavaScript.